DECAYED

SL-4 R/B, 68838 (Decayed)

Orbit data source: Space-Track

SL-4 R/B, 68838 was space debris in LEO originally from a launch on Sat, 25 Apr 2026 UTC launched from the Tyuratam Missile And Space Complex (TTMTR). Debris objects in space refer to the collection of defunct objects orbiting the Earth. Examples of debris include non-operational satellites, rocket bodies, and fragments generated from explosions, collisions, or faulty payload assembly.

Not visible in the next 10 days
Identifier
68838, 2026-093B
Orbit
Decayed
Country
Flag of CISCIS
Related business
Manufacturer
TsSKB-Progress
Mission
Decayed spacecraft
Bus & Motor
BLOK-I, RD-0980
Mass
2,350 kg wet, 2,350 kg dry
Launch date (UTC)
2026-04-25 (2 months ago)
Launch vehicle
Unknown
Launch site
Tyuratam Missile And Space Complex (TTMTR)
Object type
Payload
Rocket body
Debris
Shape & HBR
Unknown shape, 1.1 m
Radar Cross Section
Large (>1 m²)

Expand to show TLE details & history
Last TLE update: 2 months ago

TLE from 2 months ago
0 SL-4 R/B
1 68838U 26093B   26117.63842432  .08101162  12482-4  42104-3 0  9996
2 68838  51.6491 189.8262 0008279  80.4171 279.7792 16.42181963   288
Epoch: 2026-04-27T15:19Z
TLE epoch observation values (Epoch: 2026-04-27T15:19:19.861Z)
Latitude
-0.00001°
Longitude
104.36822°
Altitude
159.861 km
Speed
7.812 km/s
True Right ascension
12h 39m 18s
True Declination
0° 00' 00"
Sunlit
Object was in full shadow at epoch
Visualization orbit readout
Latitude
Unknown
Longitude
Unknown
Altitude
Unknown
Speed
Unknown
Apparent Right ascension
Unknown
Apparent Declination
Unknown
Sunlit
N/A
Visualization observer readout
Local Sidereal Time
07:21:49
Azimuth
Unknown
Elevation
Unknown
Doppler factor
Unknown
Orbital elements
Apogee altitude
165.944 km
Perigee altitude
155.117 km
Semi-major axis
6,538.668 km
Eccentricity
0.00083
Inclination
51.6491°
RAAN
189.8262°
Arg. of periapsis
80.4171°
True anomaly
279.68569°
Mean anomaly
279.7792°
Eccentric anomaly
279.73245°
Mean motion
4.10496 °/min
Orbital period
87.7 mins
BSTAR
0.00042104
Loading maneuver chart data...
Computing Atmospheric mass density...
Loading historical data...
Loading historical data...
Loading historical data...
Loading historical data...
Loading historical data...
Loading historical data...
Loading historical data...
Other satellites on launch #93 in the year 2026 (2026-04-25 UTC)

Documentation

Showing up to 5 results
|